Volver al catálogo

EGYPTSAT 1

ActivoCienciaSSO
NORAD 31117·PAYLOAD·🇪🇬 Egypt

Lanzado Apr 17, 2007 desde Baikonur Cosmodrome

Loading…

Próximos Pases (próximas 24 horas)

TLE

ActualizadoSource: Space-Track

Época: Sep 13, 2026, 20:02 UTC

1 31117U 07012A   26256.83485385  .00000783  00000-0  11084-3 0  9993
2 31117  98.0693 213.3643 0004970 160.7896 199.3504 14.79902200 42820

Sigue EGYPTSAT 1 en tiempo real con AllMySat

Download on the App Store